N8QF-1 Weather Reports


Display with metric or nautical units.
time (UTC)temp
F
wind
direction
speed
MPH
gust
MPH
rain 1hr
in
rain 24hr
in
rain mn
in
humidity
%
barometer
mb
20260509235328 74 236 12.0 15.0 0.00 0.02 0.33 42 1007.5
20260509234827 74 252 8.0 15.0 0.00 0.02 0.33 42 1007.5
20260509234327 74 208 8.0 14.0 0.00 0.02 0.33 42 1007.4
20260509233826 74 245 8.0 16.0 0.00 0.02 0.33 42 1007.4
20260509233326 74 239 7.0 14.0 0.00 0.02 0.33 42 1007.4
20260509232825 74 242 7.0 18.0 0.00 0.02 0.33 41 1007.3
20260509232325 74 242 8.0 17.0 0.00 0.02 0.33 41 1007.2
20260509231824 74 238 8.0 19.0 0.00 0.02 0.33 41 1007.2
20260509231323 74 239 8.0 16.0 0.00 0.02 0.33 40 1007.1
20260509230822 74 263 7.0 17.0 0.00 0.02 0.33 39 1007.1
20260509230322 74 281 10.0 16.0 0.00 0.02 0.33 39 1007.0
20260509225321 74 248 14.0 20.0 0.00 0.02 0.33 39 1007.2
20260509224820 74 260 12.0 17.0 0.00 0.02 0.33 40 1007.1
20260509224320 74 252 11.0 18.0 0.00 0.02 0.33 40 1007.1
20260509223819 75 214 8.0 18.0 0.00 0.02 0.33 41 1007.1
20260509223318 75 207 8.0 18.0 0.00 0.02 0.33 40 1007.0
20260509222818 75 238 8.0 13.0 0.00 0.02 0.33 40 1007.0
20260509222317 75 203 5.0 15.0 0.00 0.02 0.33 41 1007.0
20260509221817 75 214 5.0 15.0 0.00 0.02 0.33 41 1007.0
20260509221316 75 207 6.0 17.0 0.00 0.02 0.33 40 1007.1
20260509220814 75 240 9.0 17.0 0.00 0.02 0.33 41 1007.1
20260509220313 74 248 8.0 14.0 0.00 0.02 0.33 41 1007.1
20260509215813 74 243 10.0 19.0 0.00 0.02 0.33 42 1007.0
20260509215312 73 212 14.0 21.0 0.00 0.02 0.33 42 1007.0
20260509214812 74 166 9.0 25.0 0.00 0.02 0.33 42 1007.0
20260509214311 74 226 6.0 17.0 0.00 0.02 0.33 42 1006.9
20260509213811 74 194 10.0 19.0 0.00 0.02 0.33 42 1007.1
20260509213310 74 194 12.0 17.0 0.00 0.02 0.33 42 1007.0
20260509212810 74 219 9.0 18.0 0.00 0.02 0.33 43 1007.0
20260509212309 74 210 9.0 19.0 0.00 0.02 0.33 44 1007.1
20260509211809 74 215 11.0 17.0 0.00 0.02 0.33 43 1007.0
20260509211308 73 184 12.0 20.0 0.00 0.02 0.33 43 1007.0
20260509210808 73 200 10.0 19.0 0.00 0.02 0.33 43 1007.2
20260509205807 73 214 10.0 16.0 0.00 0.02 0.33 43 1007.2
20260509205307 73 246 10.0 16.0 0.00 0.02 0.33 44 1007.3
20260509204804 73 184 10.0 16.0 0.00 0.02 0.33 44 1007.3
20260509204303 73 240 10.0 15.0 0.00 0.02 0.33 44 1007.3
20260509203803 73 246 9.0 15.0 0.00 0.02 0.33 46 1007.4
20260509202801 72 222 11.0 17.0 0.00 0.02 0.33 47 1007.5
20260509202301 72 242 11.0 20.0 0.00 0.02 0.33 47 1007.5
20260509201800 72 201 12.0 16.0 0.00 0.02 0.33 48 1007.4
20260509201300 72 188 10.0 19.0 0.00 0.02 0.33 48 1007.4
20260509200759 71 214 14.0 19.0 0.00 0.02 0.33 47 1007.7
20260509200259 72 217 9.0 23.0 0.00 0.02 0.33 47 1007.6
20260509195758 73 134 7.0 16.0 0.00 0.02 0.33 49 1007.6
20260509195258 72 200 7.0 15.0 0.00 0.02 0.33 50 1007.6
20260509194256 72 204 10.0 14.0 0.00 0.02 0.33 48 1007.8
20260509193755 72 212 9.0 15.0 0.00 0.02 0.33 49 1007.8
20260509193255 72 183 8.0 15.0 0.00 0.02 0.33 51 1007.8
20260509192754 72 200 7.0 17.0 0.00 0.02 0.33 50 1007.9
20260509192254 71 250 10.0 19.0 0.00 0.02 0.33 49 1008.1
20260509191753 71 214 8.0 13.0 0.00 0.02 0.33 50 1008.1
20260509191252 71 224 7.0 19.0 0.00 0.02 0.33 50 1008.2
20260509190752 71 198 3.0 11.0 0.00 0.02 0.33 53 1008.2
20260509190251 70 233 7.0 18.0 0.00 0.02 0.33 53 1008.2
20260509185751 70 186 11.0 16.0 0.00 0.02 0.33 53 1008.2
20260509184750 68 210 11.0 17.0 0.00 0.02 0.33 55 1008.3
20260509184249 68 204 10.0 18.0 0.00 0.02 0.33 55 1008.3
20260509183749 69 193 10.0 19.0 0.00 0.02 0.33 55 1008.4
20260509183248 70 163 9.0 15.0 0.00 0.02 0.33 57 1008.3
20260509182748 69 204 8.0 19.0 0.00 0.02 0.33 55 1008.3
20260509182247 69 194 11.0 13.0 0.00 0.02 0.33 56 1008.4
20260509181747 70 245 9.0 13.0 0.00 0.02 0.33 56 1008.3
20260509181246 69 233 7.0 18.0 0.00 0.02 0.33 58 1008.3
20260509180746 69 263 12.0 17.0 0.00 0.02 0.33 56 1008.4
20260509180245 69 226 8.0 12.0 0.00 0.02 0.33 57 1008.4
20260509175745 68 221 8.0 16.0 0.00 0.02 0.33 56 1008.4
20260509175245 68 211 7.0 14.0 0.00 0.02 0.33 58 1008.4
20260509174243 67 198 11.0 13.0 0.00 0.02 0.33 58 1008.5
20260509173743 67 274 6.0 19.0 0.00 0.02 0.33 59 1008.3
20260509173242 67 236 6.0 10.0 0.00 0.02 0.33 57 1008.4
20260509172741 67 260 6.0 16.0 0.00 0.02 0.33 60 1008.5
20260509171740 67 232 9.0 16.0 0.00 0.02 0.33 60 1008.5
20260509171240 66 245 8.0 15.0 0.00 0.02 0.33 58 1008.5
20260509170739 66 269 9.0 18.0 0.00 0.02 0.33 61 1008.6
20260509170239 66 238 8.0 17.0 0.00 0.02 0.33 62 1008.6
20260509165738 66 204 5.0 14.0 0.00 0.02 0.33 61 1008.6
20260509165238 66 179 11.0 14.0 0.00 0.02 0.33 62 1008.8
20260509164737 65 229 8.0 14.0 0.00 0.02 0.33 62 1009.0
20260509164237 66 200 5.0 13.0 0.00 0.02 0.33 61 1008.9
20260509163736 65 214 8.0 17.0 0.00 0.02 0.33 62 1008.9
20260509163236 65 250 7.0 16.0 0.00 0.02 0.33 62 1008.9
20260509162735 65 245 8.0 15.0 0.00 0.02 0.33 63 1009.0
20260509162235 65 225 6.0 15.0 0.00 0.02 0.33 63 1008.9
20260509161734 64 262 10.0 18.0 0.00 0.02 0.33 62 1008.8
20260509161234 65 225 5.0 15.0 0.00 0.02 0.33 63 1008.7
20260509160733 64 239 11.0 16.0 0.00 0.02 0.33 65 1008.7
20260509160232 64 249 6.0 13.0 0.00 0.02 0.33 65 1008.8
20260509155731 64 262 7.0 16.0 0.00 0.02 0.33 67 1008.7
20260509155230 64 255 11.0 16.0 0.00 0.02 0.33 68 1008.6
20260509154229 64 218 4.0 11.0 0.00 0.02 0.33 69 1008.6
20260509153729 63 232 8.0 13.0 0.00 0.02 0.33 70 1008.5
20260509153228 63 226 8.0 13.0 0.00 0.02 0.33 70 1008.5
20260509152728 63 235 9.0 14.0 0.00 0.02 0.33 70 1008.6
20260509152227 62 260 9.0 13.0 0.00 0.02 0.33 71 1008.6
20260509151727 62 222 8.0 13.0 0.00 0.02 0.33 69 1008.6
20260509151226 62 232 7.0 11.0 0.00 0.02 0.33 73 1008.7
20260509150224 62 245 10.0 11.0 0.00 0.02 0.33 72 1008.5
20260509145724 62 235 6.0 10.0 0.00 0.02 0.33 77 1008.4
20260509145223 61 259 7.0 9.0 0.01 0.02 0.33 76 1008.3
20260509144723 61 215 6.0 15.0 0.01 0.02 0.33 77 1008.3
20260509144222 61 239 7.0 15.0 0.01 0.02 0.33 77 1008.2
20260509143722 61 231 7.0 13.0 0.01 0.02 0.33 78 1008.2
20260509143221 61 229 9.0 13.0 0.01 0.02 0.33 77 1008.2
20260509142721 61 239 11.0 12.0 0.01 0.02 0.33 78 1008.3
20260509142220 61 219 6.0 14.0 0.01 0.02 0.33 79 1008.3
20260509141218 61 169 5.0 12.0 0.01 0.02 0.33 81 1008.3
20260509140718 60 222 8.0 13.0 0.01 0.02 0.33 83 1008.3
20260509140221 59 212 7.0 10.0 0.01 0.02 0.33 83 1008.3
20260509135716 60 190 3.0 10.0 0.01 0.02 0.33 86 1008.3
20260509135216 59 212 6.0 8.0 0.00 0.02 0.32 85 1008.3
20260509134715 60 186 3.0 10.0 0.00 0.02 0.32 90 1008.4
20260509134215 59 210 7.0 10.0 0.00 0.02 0.32 88 1008.5
20260509133714 58 184 7.0 10.0 0.00 0.02 0.32 90 1008.5
20260509133214 58 174 5.0 9.0 0.00 0.02 0.32 93 1008.3
20260509132713 58 187 4.0 7.0 0.00 0.02 0.32 93 1008.3
20260509132213 58 158 5.0 8.0 0.00 0.02 0.32 93 1008.2
20260509131712 58 204 3.0 8.0 0.00 0.02 0.32 95 1008.3
20260509131212 57 184 6.0 8.0 0.00 0.02 0.32 94 1008.4
20260509130711 57 180 6.0 7.0 0.00 0.02 0.32 94 1008.4
20260509130211 57 169 5.0 9.0 0.00 0.02 0.32 95 1008.4
20260509125710 56 228 7.0 11.0 0.00 0.02 0.32 94 1008.4
20260509125210 56 245 5.0 10.0 0.01 0.02 0.32 94 1008.4
20260509124709 56 201 5.0 7.0 0.01 0.02 0.32 95 1008.4
20260509124208 56 188 3.0 7.0 0.01 0.02 0.32 95 1008.4
20260509123708 56 224 4.0 5.0 0.01 0.02 0.32 95 1008.2
20260509123208 56 253 2.0 4.0 0.01 0.02 0.32 95 1008.1
20260509122707 56 210 0.0 3.0 0.01 0.02 0.32 95 1008.0
20260509122207 56 169 1.0 2.0 0.01 0.02 0.32 95 1007.9
20260509121705 56 183 0.0 7.0 0.01 0.02 0.32 95 1007.9
20260509121204 56 160 5.0 5.0 0.01 0.02 0.32 95 1008.1
20260509120704 55 187 1.0 9.0 0.01 0.02 0.32 96 1008.2
20260509120203 55 179 4.0 6.0 0.01 0.02 0.32 96 1008.1
20260509115703 55 194 3.0 7.0 0.01 0.02 0.32 96 1008.1
20260509115202 55 160 0.0 0.0 0.07 0.02 0.32 96 1008.2
20260509114702 55 160 0.0 0.0 0.07 0.02 0.32 95 1008.0
20260509114201 55 160 0.0 0.0 0.07 0.02 0.32 95 1007.7
20260509113701 55 160 0.0 0.0 0.07 0.02 0.32 95 1007.7
20260509113200 55 160 0.0 0.0 0.07 0.02 0.32 95 1007.7
20260509112700 55 160 0.0 0.0 0.07 0.02 0.32 95 1007.7
20260509112159 55 160 0.0 3.0 0.07 0.02 0.32 95 1007.7
20260509111659 55 160 1.0 7.0 0.07 0.02 0.32 95 1007.8
20260509110658 55 170 0.0 0.0 0.07 0.02 0.32 96 1007.9
20260509110157 55 170 0.0 0.0 0.07 0.02 0.32 96 1007.9
20260509105812 55 170 0.0 4.0 0.07 0.02 0.32 96 1008.0
20260509105657 55 170 0.0 4.0 0.07 0.02 0.32 96 1008.0
20260509105156 55 197 3.0 8.0 0.07 0.02 0.31 96 1008.2
20260509104656 55 212 4.0 8.0 0.07 0.02 0.31 96 1008.2
20260509104155 55 212 1.0 9.0 0.07 0.02 0.31 96 1008.3
20260509103154 55 163 3.0 7.0 0.07 0.02 0.30 96 1008.2
20260509102651 55 183 2.0 3.0 0.07 0.02 0.30 96 1008.3
20260509101650 55 187 2.0 8.0 0.07 0.02 0.29 96 1008.0
20260509101150 55 155 6.0 8.0 0.07 0.02 0.28 96 1008.0
20260509100649 55 186 0.0 6.0 0.07 0.02 0.27 96 1008.2
20260509100149 55 225 2.0 6.0 0.07 0.02 0.26 96 1008.3
20260509095648 55 208 1.0 6.0 0.07 0.02 0.25 95 1008.4
20260509095148 55 226 0.0 5.0 0.05 0.02 0.24 95 1008.4
20260509094647 55 195 3.0 6.0 0.05 0.02 0.23 95 1008.4
20260509094147 55 198 0.0 4.0 0.05 0.02 0.23 95 1008.4
20260509093646 55 197 3.0 6.0 0.05 0.02 0.22 95 1008.4
20260509093146 55 187 3.0 5.0 0.05 0.02 0.21 95 1008.6
20260509092646 55 146 0.0 0.0 0.05 0.02 0.21 94 1008.5
20260509092145 56 146 0.0 5.0 0.05 0.02 0.21 94 1008.6
20260509091644 56 146 3.0 5.0 0.05 0.02 0.20 94 1008.5
20260509091144 56 181 2.0 4.0 0.05 0.02 0.19 94 1008.6
20260509090643 56 165 1.0 6.0 0.05 0.02 0.19 94 1008.7
20260509090143 56 204 2.0 6.0 0.05 0.02 0.18 94 1008.8
20260509085642 56 229 1.0 7.0 0.05 0.02 0.17 94 1008.8
20260509085142 56 233 0.0 5.0 0.01 0.02 0.17 94 1008.9
20260509084641 56 222 2.0 2.0 0.01 0.02 0.16 94 1008.9
20260509084140 56 203 0.0 4.0 0.01 0.02 0.16 94 1009.0
20260509083640 56 221 2.0 7.0 0.01 0.02 0.15 94 1009.1
20260509083139 56 238 4.0 7.0 0.01 0.02 0.15 94 1009.1
20260509082639 56 231 3.0 5.0 0.01 0.02 0.14 94 1009.1
20260509082138 56 235 1.0 4.0 0.01 0.02 0.14 94 1009.1
20260509081638 56 290 3.0 7.0 0.01 0.02 0.13 94 1009.2
20260509080634 56 217 2.0 6.0 0.01 0.02 0.13 94 1009.1
20260509080133 56 255 1.0 5.0 0.01 0.02 0.13 94 1009.1
20260509075631 56 217 5.0 7.0 0.01 0.02 0.12 94 1009.0
20260509075129 56 222 0.0 6.0 0.07 0.02 0.12 94 1008.9
20260509074629 56 221 3.0 6.0 0.07 0.02 0.12 94 1008.8
20260509074128 56 195 3.0 4.0 0.07 0.02 0.12 94 1008.9
20260509073628 56 246 1.0 3.0 0.07 0.02 0.12 93 1008.9
20260509073127 56 204 2.0 3.0 0.07 0.02 0.12 93 1009.0
20260509070620 56 281 2.0 7.0 0.07 0.02 0.11 93 1009.5
20260509070119 56 245 3.0 6.0 0.07 0.02 0.11 93 1009.5
20260509065618 56 242 4.0 8.0 0.07 0.02 0.11 93 1009.6
20260509065118 56 252 4.0 7.0 0.04 0.02 0.10 93 1009.6
20260509064617 56 243 4.0 8.0 0.04 0.02 0.10 93 1009.7
20260509064117 56 248 4.0 8.0 0.04 0.02 0.10 94 1009.8
20260509063615 56 304 5.0 9.0 0.04 0.02 0.10 94 1009.8
20260509063115 56 270 3.0 5.0 0.04 0.02 0.09 94 1009.8
20260509062613 56 287 4.0 8.0 0.04 0.02 0.08 94 1009.9
20260509062113 56 281 3.0 5.0 0.04 0.02 0.08 94 1009.9
20260509061611 56 316 2.0 4.0 0.04 0.02 0.07 94 1009.7
20260509061111 56 295 3.0 5.0 0.04 0.02 0.06 94 1009.8
20260509060610 56 335 4.0 7.0 0.04 0.02 0.05 94 1009.7
20260509060110 56 340 4.0 6.0 0.04 0.02 0.05 94 1009.6
20260509055609 56 20 0.0 5.0 0.04 0.02 0.04 94 1009.5
20260509055109 56 333 3.0 6.0 0.02 0.02 0.04 94 1009.8
20260509054608 56 325 4.0 7.0 0.02 0.02 0.04 94 1009.8
20260509053607 56 7 1.0 3.0 0.02 0.02 0.03 93 1009.9
20260509053105 56 253 0.0 0.0 0.02 0.02 0.02 92 1010.0
20260509052604 56 253 0.0 0.0 0.02 0.02 0.02 92 1010.1
20260509051601 56 253 0.0 0.0 0.02 0.02 0.01 91 1010.1
20260509051100 56 253 0.0 0.0 0.02 0.02 0.01 90 1010.1
20260509050600 56 253 0.0 0.0 0.02 0.02 0.00 90 1010.1
20260509050059 56 253 0.0 0.0 0.02 0.02 0.00 90 1010.0
20260509045559 56 253 0.0 0.0 0.02 0.02 0.00 90 1010.2
20260509045058 56 314 0.0 0.0 0.00 0.00 0.01 90 1010.3
20260509044558 56 314 0.0 0.0 0.00 0.00 0.01 90 1010.2
20260509043056 56 314 0.0 0.0 0.00 0.00 0.01 90 1010.2
20260509042556 56 314 0.0 0.0 0.00 0.00 0.01 90 1010.1
20260509042055 56 314 0.0 1.0 0.00 0.00 0.01 91 1010.2
20260509041555 56 345 0.0 4.0 0.00 0.00 0.01 90 1010.3
20260509041054 56 280 0.0 0.0 0.00 0.00 0.00 90 1010.3
20260509040553 56 280 0.0 2.0 0.00 0.00 0.00 90 1010.4
20260509035052 56 295 1.0 1.0 0.00 0.00 0.00 88 1010.5
20260509034552 57 277 0.0 4.0 0.00 0.00 0.00 87 1010.5
20260509034051 57 291 0.0 3.0 0.00 0.00 0.00 87 1010.5
20260509033550 57 281 3.0 3.0 0.00 0.00 0.00 86 1010.5
20260509033050 57 315 0.0 2.0 0.00 0.00 0.00 86 1010.5
20260509032549 57 7 0.0 1.0 0.00 0.00 0.00 86 1010.5
20260509032049 57 274 1.0 4.0 0.00 0.00 0.00 85 1010.6
20260509031548 57 298 3.0 5.0 0.00 0.00 0.00 85 1010.5
20260509031048 57 271 3.0 5.0 0.00 0.00 0.00 85 1010.6
20260509030547 57 325 3.0 4.0 0.00 0.00 0.00 84 1010.6
20260509030047 57 319 4.0 7.0 0.00 0.00 0.00 84 1010.6
20260509025546 57 321 2.0 4.0 0.00 0.00 0.00 84 1010.7
20260509025047 57 321 2.0 3.0 0.00 0.00 0.00 83 1010.7
20260509024545 57 338 3.0 6.0 0.00 0.00 0.00 83 1010.6
20260509024045 57 356 4.0 6.0 0.00 0.00 0.00 82 1010.7
20260509023545 58 339 2.0 4.0 0.00 0.00 0.00 81 1010.8
20260509023043 58 302 2.0 5.0 0.00 0.00 0.00 80 1010.9
20260509022542 58 278 3.0 6.0 0.00 0.00 0.00 80 1011.0
20260509022041 58 291 3.0 4.0 0.00 0.00 0.00 79 1010.8
20260509021541 58 294 0.0 0.0 0.00 0.00 0.00 77 1010.7
20260509021040 58 294 0.0 0.0 0.00 0.00 0.00 78 1010.6
20260509020540 58 294 0.0 0.0 0.00 0.00 0.00 78 1010.5
20260509020039 58 294 0.0 0.0 0.00 0.00 0.00 77 1010.4
20260509015539 59 294 0.0 0.0 0.00 0.00 0.00 78 1010.4
20260509015038 59 294 0.0 0.0 0.00 0.00 0.00 74 1010.4
20260509014538 59 294 0.0 0.0 0.00 0.00 0.00 73 1010.3
20260509014037 59 294 0.0 4.0 0.00 0.00 0.00 72 1010.3
20260509013537 59 294 0.0 7.0 0.00 0.00 0.00 72 1010.4
20260509013036 59 352 5.0 6.0 0.00 0.00 0.00 73 1010.4
20260509012536 59 350 1.0 4.0 0.00 0.00 0.00 72 1010.3
20260509012035 59 262 1.0 6.0 0.00 0.00 0.00 71 1010.3
20260509011535 60 21 4.0 8.0 0.00 0.00 0.00 70 1010.2
20260509011034 60 17 6.0 9.0 0.00 0.00 0.00 70 1010.1
20260509005533 61 309 5.0 7.0 0.00 0.00 0.00 69 1010.2
20260509004530 61 347 4.0 9.0 0.00 0.00 0.00 69 1010.0
20260509004029 61 311 6.0 0.0 0.00 0.00 0.00 69 1009.9
20260509003528 60 329 0.0 0.0 0.00 0.00 0.00 75 1009.6
20260509003028 61 329 0.0 0.0 0.00 0.00 0.00 72 1009.7
20260509002527 61 329 0.0 0.0 0.00 0.00 0.00 73 1009.7
20260509002027 61 329 0.0 0.0 0.00 0.00 0.00 69 1009.7
20260509001526 61 329 0.0 0.0 0.00 0.00 0.00 71 1009.6
20260509001026 61 329 0.0 0.0 0.00 0.00 0.00 70 1009.6
20260509000525 61 329 0.0 0.0 0.00 0.00 0.00 71 1009.7
20260509000025 61 329 0.0 0.0 0.00 0.00 0.00 71 1009.7